Cleveland Burke, OH

11:50 PM EDT on May 25, 2017 (GMT -0400)
Burke Lakefront

Weather History for KBKL - January, 2005

Change the Weather History Date:

Friday, January 21, 2005

  Actual Average Record
Temperature  
Mean Temperature 18 °F -  
Max Temperature 21 °F 31 °F 64 °F (2017)
Min Temperature 16 °F 20 °F 6 °F (2009)
Degree Days  
Heating Degree Days 46    
Moisture  
Dew Point 6 °F    
Average Humidity 57    
Maximum Humidity 63    
Minimum Humidity 50    
Precipitation  
Precipitation 0.00 in - - ()
Sea Level Pressure  
Sea Level Pressure 30.24 in    
Wind  
Wind Speed 11 mph (NE)    
Max Wind Speed 18 mph    
Max Gust Speed 24 mph    
Visibility 10 miles    
Events Snow    
Averages and records for this station are not official NWS values.
T = Trace of Precipitation, MM = Missing Value Source: NWS Daily Summary

Daily Weather History Graph

Daily Weather History Graph

Search for Another Location

Airport or City:

Trip Planner

Search our weather history database for the weather conditions in past years. The results will help you decide how hot, cold, wet, or windy it might be!

Date:

Astronomy

Jan. 21, 2005 Rise Set
Actual Time 7:47 AM EST 5:29 PM EST
Civil Twilight 7:17 AM EST 5:59 PM EST
Nautical Twilight 6:43 AM EST 6:33 PM EST
Astronomical Twilight 6:10 AM EST 7:06 PM EST
Moon 1:58 PM EST (1/21) 5:14 AM EST (1/21)
Length of Visible Light 10h 41m
Length of Day
9h 41m
Waxing Gibbous, 88% of the Moon is Illuminated
Jan 21
Waxing Gibbous
Jan 25
Full
Feb 2
Last Quarter
Feb 8
New
Feb 15
First Quarter

Hourly Weather History & Observations

Time (EST) Temp. Windchill Dew Point Humidity Pressure Visibility Wind Dir Wind Speed Gust Speed Precip Events Conditions
12:25 AM 21.2 °F 12.6 °F 8.6 °F 58% 30.13 in 9.0 mi ENE 6.9 mph - 0.00 in Snow Light Snow
12:53 AM 21.0 °F 11.4 °F 9.0 °F 60% 30.16 in 10.0 mi ENE 8.1 mph - 0.00 in   Overcast
1:45 AM 21.2 °F 7.3 °F 8.6 °F 58% 30.13 in 10.0 mi NNE 16.1 mph - N/A   Overcast
1:53 AM 21.0 °F 7.1 °F 9.0 °F 60% 30.16 in 10.0 mi NNE 16.1 mph 23.0 mph N/A   Overcast
2:53 AM 19.9 °F 6.7 °F 7.0 °F 57% 30.17 in 10.0 mi NE 13.8 mph 21.9 mph N/A   Mostly Cloudy
3:31 AM 19.4 °F 5.5 °F 8.6 °F 63% 30.16 in 10.0 mi NNE 15.0 mph - N/A   Overcast
3:53 AM 19.9 °F 6.2 °F 6.1 °F 55% 30.19 in 10.0 mi NNE 15.0 mph - N/A   Overcast
4:53 AM 19.0 °F 4.5 °F 7.0 °F 59% 30.20 in 10.0 mi NNE 16.1 mph - N/A   Overcast
5:53 AM 18.0 °F 2.2 °F 7.0 °F 62% 30.23 in 10.0 mi NNE 18.4 mph - 0.00 in   Overcast
6:53 AM 18.0 °F 2.2 °F 6.1 °F 60% 30.26 in 10.0 mi NE 18.4 mph 24.2 mph 0.00 in   Overcast
7:53 AM 16.0 °F 2.9 °F 5.0 °F 62% 30.30 in 10.0 mi ENE 11.5 mph - 0.00 in   Mostly Cloudy
8:53 AM 17.1 °F 4.3 °F 5.0 °F 59% 30.31 in 10.0 mi ENE 11.5 mph - N/A   Overcast
9:53 AM 17.1 °F 5.8 °F 3.9 °F 56% 30.33 in 10.0 mi ENE 9.2 mph - N/A   Clear
10:13 AM 17.6 °F 8.2 °F 3.2 °F 53% 30.31 in 10.0 mi East 6.9 mph - N/A   Mostly Cloudy
10:53 AM 19.0 °F 7.5 °F 3.9 °F 52% 30.35 in 10.0 mi NE 10.4 mph - N/A   Mostly Cloudy
11:53 AM 19.9 °F 14.9 °F 3.9 °F 50% 30.34 in 10.0 mi Variable 3.5 mph - N/A   Partly Cloudy
12:53 PM 19.9 °F 11.1 °F 3.9 °F 50% 30.31 in 10.0 mi NNE 6.9 mph - N/A   Clear
1:53 PM 21.0 °F 11.4 °F 5.0 °F 50% 30.30 in 10.0 mi NNE 8.1 mph - N/A   Clear
2:53 PM 21.0 °F 9.9 °F 7.0 °F 55% 30.29 in 10.0 mi North 10.4 mph - N/A   Clear
3:53 PM 21.0 °F 9.3 °F 7.0 °F 55% 30.29 in 10.0 mi NNE 11.5 mph - N/A   Clear
4:53 PM 19.0 °F 7.5 °F 8.1 °F 62% 30.29 in 10.0 mi NNE 10.4 mph - N/A   Mostly Cloudy
5:53 PM 18.0 °F 4.8 °F 6.1 °F 60% 30.27 in 10.0 mi NE 12.7 mph - N/A   Mostly Cloudy
6:53 PM 18.0 °F 6.9 °F 3.9 °F 54% 30.27 in 10.0 mi East 9.2 mph - N/A   Mostly Cloudy
7:53 PM 16.0 °F 4.4 °F 3.9 °F 59% 30.26 in 10.0 mi ENE 9.2 mph - N/A   Overcast
8:53 PM 17.1 °F 10.0 °F 3.0 °F 54% 30.24 in 10.0 mi East 4.6 mph - N/A   Overcast
9:53 PM 16.0 °F 7.4 °F 3.0 °F 57% 30.20 in 10.0 mi East 5.8 mph - N/A   Mostly Cloudy
10:53 PM 16.0 °F 7.4 °F 1.9 °F 54% 30.17 in 10.0 mi ENE 5.8 mph - N/A   Clear
11:53 PM 17.1 °F - 1.0 °F 50% 30.14 in 10.0 mi Calm Calm - N/A   Clear